Location: Poprad
(49.0500°N, 20.3000°E)
Time: 19:00:38
(UTC+02:00)

RS-44 - Pass Details

Date: 24 April 2024
Orbit: 1174 x 1511 km, 82.5° (Epoch: 20 May)

Event Time Altitude Azimuth Distance (km) Brightness Sun altitude
Rises 04:37:08 0° 354° (N) 4,345 ? -8.6°
Reaches altitude 10° 04:41:52 10° 18° (NNE) 3,294 ? -7.9°
Maximum altitude 04:45:37 14° 48° (NE) 2,937 ? -7.4°
Drops below altitude 10° 04:49:15 10° 78° (ENE) 3,184 ? -6.9°
Sets 04:53:38 0° 103° (ESE) 4,097 ? -6.2°
